Time,TemperatureF,DewpointF,PressureIn,WindDirection,WindDirectionDegrees,WindSpeedMPH,WindSpeedGustMPH,Humidity,HourlyPrecipIn,Conditions,Clouds,dailyrainin,SoftwareType,DateUTC
2013-04-02 00:00:00,39.4,19.2,29.70,SE,135,7.6,12.1,44,0.00,,,-99.99,meteobridge,2013-04-02 04:00:00,
2013-04-02 00:01:00,39.4,19.2,29.70,SE,135,7.6,7.6,44,0.00,,,0.00,meteobridge,2013-04-02 04:01:00,
2013-04-02 00:06:00,39.4,19.2,29.70,SE,135,7.6,7.6,44,0.00,,,0.00,meteobridge,2013-04-02 04:06:00,
2013-04-02 00:11:00,39.0,20.5,29.71,East,90,6.9,13.6,47,0.00,,,0.00,meteobridge,2013-04-02 04:11:00,
2013-04-02 00:16:00,38.8,20.3,29.71,SW,225,12.1,12.1,47,0.00,,,0.00,meteobridge,2013-04-02 04:16:00,
2013-04-02 00:21:00,38.7,20.1,29.72,SE,135,13.6,15.2,47,0.00,,,0.00,meteobridge,2013-04-02 04:21:00,
2013-04-02 00:27:00,38.7,17.6,29.72,South,180,12.1,12.1,42,0.00,,,0.00,meteobridge,2013-04-02 04:27:00,
2013-04-02 00:32:00,38.5,18.0,29.72,East,90,9.8,13.0,43,0.00,,,0.00,meteobridge,2013-04-02 04:32:00,
2013-04-02 00:37:00,38.5,19.0,29.72,South,180,9.8,10.7,45,0.00,,,0.00,meteobridge,2013-04-02 04:37:00,
2013-04-02 00:42:00,38.5,19.9,29.72,SE,135,6.0,8.3,47,0.00,,,0.00,meteobridge,2013-04-02 04:42:00,
2013-04-02 00:47:00,38.3,19.8,29.72,SE,135,9.8,9.8,47,0.00,,,0.00,meteobridge,2013-04-02 04:47:00,
2013-04-02 00:52:00,38.1,18.7,29.72,SW,225,6.9,13.0,45,0.00,,,0.00,meteobridge,2013-04-02 04:52:00,
2013-04-02 00:58:00,37.9,18.5,29.73,SE,135,17.4,17.4,45,0.00,,,0.00,meteobridge,2013-04-02 04:58:00,
2013-04-02 01:03:00,37.8,18.3,29.73,SW,225,9.8,10.7,45,0.00,,,0.00,meteobridge,2013-04-02 05:03:00,
2013-04-02 01:08:00,37.8,18.3,29.73,South,180,6.9,8.3,45,0.00,,,0.00,meteobridge,2013-04-02 05:08:00,
2013-04-02 01:13:00,37.6,18.7,29.73,East,90,10.7,10.7,46,0.00,,,0.00,meteobridge,2013-04-02 05:13:00,
2013-04-02 01:18:00,37.6,18.1,29.73,SE,135,13.6,13.6,45,0.00,,,0.00,meteobridge,2013-04-02 05:18:00,
2013-04-02 01:23:00,37.4,18.0,29.74,South,180,9.8,9.8,45,0.00,,,0.00,meteobridge,2013-04-02 05:23:00,
2013-04-02 01:29:00,37.2,15.6,29.74,South,180,10.7,10.7,41,0.00,,,0.00,meteobridge,2013-04-02 05:29:00,
2013-04-02 01:34:00,37.0,15.4,29.74,SE,135,6.9,8.3,41,0.00,,,0.00,meteobridge,2013-04-02 05:34:00,
2013-04-02 01:39:00,37.0,15.4,29.74,SW,225,11.4,11.4,41,0.00,,,0.00,meteobridge,2013-04-02 05:39:00,
2013-04-02 01:44:00,37.0,15.4,29.75,SE,135,6.9,10.7,41,0.00,,,0.00,meteobridge,2013-04-02 05:44:00,
2013-04-02 01:49:00,36.9,16.0,29.75,South,180,11.4,11.4,42,0.00,,,0.00,meteobridge,2013-04-02 05:49:00,
2013-04-02 01:54:00,36.9,15.4,29.75,SE,135,8.3,11.4,41,0.00,,,0.00,meteobridge,2013-04-02 05:54:00,
2013-04-02 02:00:00,36.7,15.3,29.75,South,180,9.2,9.2,41,0.00,,,0.00,meteobridge,2013-04-02 06:00:00,
2013-04-02 02:05:00,36.7,15.3,29.75,South,180,9.2,9.2,41,0.00,,,0.00,meteobridge,2013-04-02 06:05:00,
2013-04-02 02:10:00,36.5,15.1,29.74,SE,135,13.6,17.4,41,0.00,,,0.00,meteobridge,2013-04-02 06:10:00,
2013-04-02 02:15:00,36.3,13.1,29.74,South,180,13.6,13.6,38,0.00,,,0.00,meteobridge,2013-04-02 06:15:00,
2013-04-02 02:20:00,36.3,12.6,29.74,West,270,6.9,8.3,37,0.00,,,0.00,meteobridge,2013-04-02 06:20:00,
2013-04-02 02:25:00,36.1,14.7,29.74,SE,135,10.7,10.7,41,0.00,,,0.00,meteobridge,2013-04-02 06:25:00,
2013-04-02 02:30:00,36.1,14.7,29.74,South,180,6.9,9.2,41,0.00,,,0.00,meteobridge,2013-04-02 06:30:00,
2013-04-02 02:35:00,36.0,14.5,29.74,South,180,9.2,12.1,41,0.00,,,0.00,meteobridge,2013-04-02 06:35:00,
2013-04-02 02:41:00,36.0,14.5,29.74,South,180,6.9,11.4,41,0.00,,,0.00,meteobridge,2013-04-02 06:41:00,
2013-04-02 02:46:00,36.0,15.1,29.75,South,180,11.4,11.4,42,0.00,,,0.00,meteobridge,2013-04-02 06:46:00,
2013-04-02 02:51:00,35.6,14.2,29.75,South,180,7.6,9.2,41,0.00,,,0.00,meteobridge,2013-04-02 06:51:00,
2013-04-02 02:56:00,35.6,14.2,29.75,South,180,9.2,17.4,41,0.00,,,0.00,meteobridge,2013-04-02 06:56:00,
2013-04-02 03:01:00,35.6,14.2,29.75,East,90,7.6,9.8,41,0.00,,,0.00,meteobridge,2013-04-02 07:01:00,
2013-04-02 03:06:00,35.6,14.7,29.75,SE,135,8.3,12.1,42,0.00,,,0.00,meteobridge,2013-04-02 07:06:00,
2013-04-02 03:11:00,35.4,14.5,29.75,SE,135,17.4,17.4,42,0.00,,,0.00,meteobridge,2013-04-02 07:11:00,
2013-04-02 03:16:00,35.4,14.5,29.75,SE,135,7.6,8.3,42,0.00,,,0.00,meteobridge,2013-04-02 07:16:00,
2013-04-02 03:21:00,35.4,14.5,29.75,South,180,8.3,10.7,42,0.00,,,0.00,meteobridge,2013-04-02 07:21:00,
2013-04-02 03:27:00,35.2,13.3,29.75,SE,135,11.4,11.4,40,0.00,,,0.00,meteobridge,2013-04-02 07:27:00,
2013-04-02 03:32:00,35.2,13.3,29.75,South,180,6.0,7.6,40,0.00,,,0.00,meteobridge,2013-04-02 07:32:00,
2013-04-02 03:37:00,35.2,13.3,29.75,South,180,9.8,9.8,40,0.00,,,0.00,meteobridge,2013-04-02 07:37:00,
2013-04-02 03:42:00,35.1,14.9,29.75,South,180,10.7,12.1,43,0.00,,,0.00,meteobridge,2013-04-02 07:42:00,
2013-04-02 03:47:00,35.1,14.9,29.75,North,0,8.3,8.3,43,0.00,,,0.00,meteobridge,2013-04-02 07:47:00,
2013-04-02 03:52:00,34.9,14.7,29.75,SE,135,12.1,12.1,43,0.00,,,0.00,meteobridge,2013-04-02 07:52:00,
2013-04-02 03:58:00,34.9,14.2,29.75,SW,225,8.3,8.3,42,0.00,,,0.00,meteobridge,2013-04-02 07:58:00,
2013-04-02 04:03:00,34.7,14.0,29.75,South,180,7.6,7.6,42,0.00,,,0.00,meteobridge,2013-04-02 08:03:00,
2013-04-02 04:08:00,34.7,14.0,29.76,SE,135,13.0,13.0,42,0.00,,,0.00,meteobridge,2013-04-02 08:08:00,
2013-04-02 04:13:00,34.7,12.9,29.76,SE,135,12.1,12.1,40,0.00,,,0.00,meteobridge,2013-04-02 08:13:00,
2013-04-02 04:18:00,34.7,10.4,29.76,South,180,6.9,14.5,36,0.00,,,0.00,meteobridge,2013-04-02 08:18:00,
2013-04-02 04:23:00,34.5,10.9,29.76,SSW,203,11.4,11.4,37,0.00,,,0.00,meteobridge,2013-04-02 08:23:00,
2013-04-02 04:29:00,34.5,10.9,29.75,SE,135,9.2,9.2,37,0.00,,,0.00,meteobridge,2013-04-02 08:29:00,
2013-04-02 04:34:00,34.5,11.5,29.76,South,180,9.2,9.2,38,0.00,,,0.00,meteobridge,2013-04-02 08:34:00,
2013-04-02 04:39:00,34.3,12.0,29.76,South,180,11.4,11.4,39,0.00,,,0.00,meteobridge,2013-04-02 08:39:00,
2013-04-02 04:44:00,34.3,11.3,29.76,SE,135,6.9,11.4,38,0.00,,,0.00,meteobridge,2013-04-02 08:44:00,
2013-04-02 04:49:00,34.3,12.6,29.76,SE,135,7.6,8.3,40,0.00,,,0.00,meteobridge,2013-04-02 08:49:00,
2013-04-02 04:54:00,34.2,11.8,29.77,South,180,5.4,5.4,39,0.00,,,0.00,meteobridge,2013-04-02 08:54:00,
2013-04-02 05:00:00,34.2,11.1,29.77,SE,135,8.3,8.3,38,0.00,,,0.00,meteobridge,2013-04-02 09:00:00,
2013-04-02 05:05:00,34.0,11.7,29.77,South,180,9.8,9.8,39,0.00,,,0.00,meteobridge,2013-04-02 09:05:00,
2013-04-02 05:10:00,34.0,12.2,29.77,SE,135,6.9,8.3,40,0.00,,,0.00,meteobridge,2013-04-02 09:10:00,
2013-04-02 05:15:00,34.0,11.1,29.78,SE,135,7.6,9.2,38,0.00,,,0.00,meteobridge,2013-04-02 09:15:00,
2013-04-02 05:20:00,34.0,11.1,29.78,South,180,6.9,9.8,38,0.00,,,0.00,meteobridge,2013-04-02 09:20:00,
2013-04-02 05:25:00,34.0,11.1,29.78,South,180,5.4,9.8,38,0.00,,,0.00,meteobridge,2013-04-02 09:25:00,
2013-04-02 05:31:00,33.8,12.0,29.78,South,180,6.0,9.2,40,0.00,,,0.00,meteobridge,2013-04-02 09:31:00,
2013-04-02 05:36:00,33.8,11.5,29.78,South,180,13.0,13.0,39,0.00,,,0.00,meteobridge,2013-04-02 09:36:00,
2013-04-02 05:41:00,33.8,11.5,29.78,South,180,6.9,6.9,39,0.00,,,0.00,meteobridge,2013-04-02 09:41:00,
2013-04-02 05:46:00,33.6,11.8,29.78,South,180,8.3,8.3,40,0.00,,,0.00,meteobridge,2013-04-02 09:46:00,
2013-04-02 05:51:00,33.6,11.8,29.78,SSE,158,4.5,6.9,40,0.00,,,0.00,meteobridge,2013-04-02 09:51:00,
2013-04-02 05:56:00,33.4,13.3,29.78,South,180,6.9,9.8,43,0.00,,,0.00,meteobridge,2013-04-02 09:56:00,
2013-04-02 06:01:00,33.4,13.3,29.78,South,180,8.3,8.3,43,0.00,,,0.00,meteobridge,2013-04-02 10:01:00,
2013-04-02 06:06:00,33.4,13.3,29.79,South,180,8.3,8.3,43,0.00,,,0.00,meteobridge,2013-04-02 10:06:00,
2013-04-02 06:11:00,33.3,13.1,29.79,SW,225,8.3,8.3,43,0.00,,,0.00,meteobridge,2013-04-02 10:11:00,
2013-04-02 06:17:00,33.3,13.1,29.79,SE,135,6.9,6.9,43,0.00,,,0.00,meteobridge,2013-04-02 10:17:00,
2013-04-02 06:22:00,33.1,13.1,29.79,SSW,203,5.4,8.3,43,0.00,,,0.00,meteobridge,2013-04-02 10:22:00,
2013-04-02 06:27:00,33.3,13.6,29.79,SE,135,5.4,9.8,44,0.00,,,0.00,meteobridge,2013-04-02 10:27:00,
2013-04-02 06:32:00,33.3,13.1,29.80,South,180,6.9,6.9,43,0.00,,,0.00,meteobridge,2013-04-02 10:32:00,
2013-04-02 06:37:00,33.3,13.1,29.80,SE,135,7.6,7.6,43,0.00,,,0.00,meteobridge,2013-04-02 10:37:00,
2013-04-02 06:42:00,33.3,13.1,29.80,SE,135,6.0,6.9,43,0.00,,,0.00,meteobridge,2013-04-02 10:42:00,
2013-04-02 06:48:00,33.3,13.1,29.80,SW,225,4.5,6.9,43,0.00,,,0.00,meteobridge,2013-04-02 10:48:00,
2013-04-02 06:53:00,33.4,13.8,29.80,East,90,5.4,6.0,44,0.00,,,0.00,meteobridge,2013-04-02 10:53:00,
2013-04-02 06:58:00,33.4,14.4,29.80,South,180,6.9,6.9,45,0.00,,,0.00,meteobridge,2013-04-02 10:58:00,
2013-04-02 07:03:00,33.4,14.4,29.81,South,180,5.4,9.8,45,0.00,,,0.00,meteobridge,2013-04-02 11:03:00,
2013-04-02 07:08:00,33.4,14.4,29.81,SE,135,6.0,6.0,45,0.00,,,0.00,meteobridge,2013-04-02 11:08:00,
2013-04-02 07:13:00,33.6,14.5,29.81,SE,135,6.0,6.0,45,0.00,,,0.00,meteobridge,2013-04-02 11:13:00,
2013-04-02 07:19:00,33.8,14.2,29.81,SE,135,4.5,4.5,44,0.00,,,0.00,meteobridge,2013-04-02 11:19:00,
2013-04-02 07:24:00,34.3,14.7,29.81,ESE,113,6.9,6.9,44,0.00,,,0.00,meteobridge,2013-04-02 11:24:00,
2013-04-02 07:29:00,34.7,14.5,29.82,South,180,9.8,9.8,43,0.00,,,0.00,meteobridge,2013-04-02 11:29:00,
2013-04-02 07:34:00,35.6,14.2,29.82,East,90,9.8,9.8,41,0.00,,,0.00,meteobridge,2013-04-02 11:34:00,
2013-04-02 07:39:00,36.9,15.4,29.82,South,180,7.6,7.6,41,0.00,,,0.00,meteobridge,2013-04-02 11:39:00,
2013-04-02 07:44:00,37.2,14.0,29.82,South,180,6.9,9.2,38,0.00,,,0.00,meteobridge,2013-04-02 11:44:00,
2013-04-02 07:49:00,37.8,16.2,29.82,South,180,4.5,7.6,41,0.00,,,0.00,meteobridge,2013-04-02 11:49:00,
2013-04-02 07:55:00,37.8,15.6,29.82,SE,135,7.6,7.6,40,0.00,,,0.00,meteobridge,2013-04-02 11:55:00,
2013-04-02 08:00:00,37.9,16.9,29.83,South,180,7.6,7.6,42,0.00,,,0.00,meteobridge,2013-04-02 12:00:00,
2013-04-02 08:05:00,38.3,18.3,29.83,ESE,113,5.4,5.4,44,0.00,,,0.00,meteobridge,2013-04-02 12:05:00,
2013-04-02 08:10:00,38.7,17.6,29.82,South,180,6.0,6.0,42,0.00,,,0.00,meteobridge,2013-04-02 12:10:00,
2013-04-02 08:15:00,39.0,16.2,29.83,ESE,113,4.5,8.3,39,0.00,,,0.00,meteobridge,2013-04-02 12:15:00,
2013-04-02 08:20:00,39.0,18.5,29.83,East,90,9.2,9.2,43,0.00,,,0.00,meteobridge,2013-04-02 12:20:00,
2013-04-02 08:26:00,39.2,16.9,29.82,South,180,6.0,8.3,40,0.00,,,0.00,meteobridge,2013-04-02 12:26:00,
2013-04-02 08:31:00,39.4,17.1,29.83,South,180,9.2,9.2,40,0.00,,,0.00,meteobridge,2013-04-02 12:31:00,
2013-04-02 08:36:00,39.0,17.2,29.83,South,180,6.9,10.7,41,0.00,,,0.00,meteobridge,2013-04-02 12:36:00,
2013-04-02 08:41:00,38.5,18.5,29.83,SE,135,6.9,10.7,44,0.00,,,0.00,meteobridge,2013-04-02 12:41:00,
2013-04-02 08:46:00,38.5,19.0,29.83,NE,45,7.6,7.6,45,0.00,,,0.00,meteobridge,2013-04-02 12:46:00,
2013-04-02 08:51:00,39.2,19.0,29.83,SSE,158,5.4,5.4,44,0.00,,,0.00,meteobridge,2013-04-02 12:51:00,
2013-04-02 08:56:00,39.2,18.0,29.83,SE,135,8.3,13.0,42,0.00,,,0.00,meteobridge,2013-04-02 12:56:00,
2013-04-02 09:02:00,38.8,17.8,29.83,SE,135,9.2,9.2,42,0.00,,,0.00,meteobridge,2013-04-02 13:02:00,
2013-04-02 09:07:00,38.8,17.1,29.83,South,180,14.5,14.5,41,0.00,,,0.00,meteobridge,2013-04-02 13:07:00,
2013-04-02 09:12:00,38.7,16.3,29.83,SW,225,5.4,6.9,40,0.00,,,0.00,meteobridge,2013-04-02 13:12:00,
2013-04-02 09:17:00,38.7,17.1,29.83,South,180,4.5,8.3,41,0.00,,,0.00,meteobridge,2013-04-02 13:17:00,
2013-04-02 09:22:00,39.6,17.2,29.83,East,90,6.9,6.9,40,0.00,,,0.00,meteobridge,2013-04-02 13:22:00,
2013-04-02 09:27:00,39.7,16.9,29.83,SE,135,6.9,7.6,39,0.00,,,0.00,meteobridge,2013-04-02 13:27:00,
2013-04-02 09:32:00,39.4,18.1,29.83,SSE,158,6.9,9.2,42,0.00,,,0.00,meteobridge,2013-04-02 13:32:00,
2013-04-02 09:37:00,39.4,19.2,29.82,South,180,6.0,6.0,44,0.00,,,0.00,meteobridge,2013-04-02 13:37:00,
2013-04-02 09:43:00,39.7,18.5,29.82,SW,225,7.6,7.6,42,0.00,,,0.00,meteobridge,2013-04-02 13:43:00,
2013-04-02 09:48:00,40.6,18.9,29.82,South,180,5.4,5.4,41,0.00,,,0.00,meteobridge,2013-04-02 13:48:00,
2013-04-02 09:53:00,40.8,18.3,29.82,South,180,6.9,6.9,40,0.00,,,0.00,meteobridge,2013-04-02 13:53:00,
2013-04-02 09:58:00,40.1,17.8,29.82,SW,225,7.6,7.6,40,0.00,,,0.00,meteobridge,2013-04-02 13:58:00,
2013-04-02 10:03:00,40.5,18.7,29.82,SE,135,8.3,8.3,41,0.00,,,0.00,meteobridge,2013-04-02 14:03:00,
2013-04-02 10:08:00,41.0,19.0,29.83,East,90,3.8,8.3,41,0.00,,,0.00,meteobridge,2013-04-02 14:08:00,
2013-04-02 10:14:00,41.5,17.2,29.82,South,180,8.3,13.0,37,0.00,,,0.00,meteobridge,2013-04-02 14:14:00,
2013-04-02 10:19:00,40.6,17.1,29.82,NE,45,6.9,6.9,38,0.00,,,0.00,meteobridge,2013-04-02 14:19:00,
2013-04-02 10:24:00,39.7,16.2,29.83,NE,45,5.4,5.4,38,0.00,,,0.00,meteobridge,2013-04-02 14:24:00,
2013-04-02 10:29:00,39.6,17.2,29.82,East,90,5.4,5.4,40,0.00,,,0.00,meteobridge,2013-04-02 14:29:00,
2013-04-02 10:34:00,42.1,17.6,29.82,North,0,7.6,8.3,37,0.00,,,0.00,meteobridge,2013-04-02 14:34:00,
2013-04-02 10:39:00,41.9,16.9,29.82,South,180,3.1,6.0,36,0.00,,,0.00,meteobridge,2013-04-02 14:39:00,
2013-04-02 10:45:00,41.4,17.1,29.82,SW,225,2.2,4.5,37,0.00,,,0.00,meteobridge,2013-04-02 14:45:00,
2013-04-02 10:50:00,40.8,17.2,29.82,SW,225,7.6,7.6,38,0.00,,,0.00,meteobridge,2013-04-02 14:50:00,
2013-04-02 10:55:00,40.5,16.2,29.82,NE,45,5.4,6.0,37,0.00,,,0.00,meteobridge,2013-04-02 14:55:00,
2013-04-02 11:00:00,40.3,16.7,29.81,South,180,5.4,6.0,38,0.00,,,0.00,meteobridge,2013-04-02 15:00:00,
2013-04-02 11:05:00,41.9,16.2,29.81,South,180,6.9,10.7,35,0.00,,,0.00,meteobridge,2013-04-02 15:05:00,
2013-04-02 11:10:00,42.6,16.2,29.81,SW,225,6.0,6.0,34,0.00,,,0.00,meteobridge,2013-04-02 15:10:00,
2013-04-02 11:16:00,43.3,16.9,29.81,SE,135,7.6,8.3,34,0.00,,,0.00,meteobridge,2013-04-02 15:16:00,
2013-04-02 11:21:00,41.7,15.4,29.81,SE,135,6.0,6.9,34,0.00,,,0.00,meteobridge,2013-04-02 15:21:00,
2013-04-02 11:26:00,42.1,16.3,29.81,South,180,9.2,9.2,35,0.00,,,0.00,meteobridge,2013-04-02 15:26:00,
2013-04-02 11:31:00,43.9,16.7,29.81,SE,135,6.9,7.6,33,0.00,,,0.00,meteobridge,2013-04-02 15:31:00,
2013-04-02 11:36:00,45.0,15.4,29.81,SE,135,6.9,6.9,30,0.00,,,0.00,meteobridge,2013-04-02 15:36:00,
2013-04-02 11:42:00,44.6,12.7,29.81,South,180,3.8,6.9,27,0.00,,,0.00,meteobridge,2013-04-02 15:42:00,
2013-04-02 11:47:00,45.0,13.8,29.81,South,180,5.4,7.6,28,0.00,,,0.00,meteobridge,2013-04-02 15:47:00,
2013-04-02 11:52:00,45.3,16.5,29.80,SE,135,9.2,9.2,31,0.00,,,0.00,meteobridge,2013-04-02 15:52:00,
2013-04-02 11:57:00,44.8,14.5,29.80,NW,315,3.8,8.3,29,0.00,,,0.00,meteobridge,2013-04-02 15:57:00,
2013-04-02 12:02:00,45.5,15.1,29.80,North,0,6.0,8.3,29,0.00,,,0.00,meteobridge,2013-04-02 16:02:00,
2013-04-02 12:07:00,45.9,14.5,29.80,SE,135,4.5,7.6,28,0.00,,,0.00,meteobridge,2013-04-02 16:07:00,
2013-04-02 12:13:00,45.5,15.8,29.80,South,180,6.0,6.0,30,0.00,,,0.00,meteobridge,2013-04-02 16:13:00,
2013-04-02 12:18:00,45.7,15.3,29.80,SE,135,7.6,8.3,29,0.00,,,0.00,meteobridge,2013-04-02 16:18:00,
2013-04-02 12:23:00,45.3,14.2,29.80,South,180,7.6,7.6,28,0.00,,,0.00,meteobridge,2013-04-02 16:23:00,
2013-04-02 12:28:00,46.4,17.4,29.80,SE,135,6.9,8.3,31,0.00,,,0.00,meteobridge,2013-04-02 16:28:00,
2013-04-02 12:33:00,46.2,14.9,29.79,SE,135,3.8,9.2,28,0.00,,,0.00,meteobridge,2013-04-02 16:33:00,
2013-04-02 12:38:00,46.8,16.9,29.79,SE,135,3.8,9.2,30,0.00,,,0.00,meteobridge,2013-04-02 16:38:00,
2013-04-02 12:43:00,46.8,16.9,29.79,SE,135,6.9,6.9,30,0.00,,,0.00,meteobridge,2013-04-02 16:43:00,
2013-04-02 12:48:00,46.2,14.9,29.79,SE,135,3.8,8.3,28,0.00,,,0.00,meteobridge,2013-04-02 16:48:00,
2013-04-02 12:54:00,47.7,18.5,29.79,SW,225,6.0,6.0,31,0.00,,,0.00,meteobridge,2013-04-02 16:54:00,
2013-04-02 12:59:00,47.5,17.6,29.79,East,90,3.1,7.6,30,0.00,,,0.00,meteobridge,2013-04-02 16:59:00,
2013-04-02 13:04:00,45.5,14.4,29.79,SE,135,6.0,6.9,28,0.00,,,0.00,meteobridge,2013-04-02 17:04:00,
2013-04-02 13:09:00,46.4,17.4,29.78,SE,135,6.0,7.6,31,0.00,,,0.00,meteobridge,2013-04-02 17:09:00,
2013-04-02 13:14:00,46.8,17.8,29.78,SE,135,5.4,6.0,31,0.00,,,0.00,meteobridge,2013-04-02 17:14:00,
2013-04-02 13:19:00,46.9,17.1,29.78,SE,135,13.6,13.6,30,0.00,,,0.00,meteobridge,2013-04-02 17:19:00,
2013-04-02 13:24:00,47.8,18.0,29.78,NW,315,12.1,12.1,30,0.00,,,0.00,meteobridge,2013-04-02 17:24:00,
2013-04-02 13:30:00,46.6,16.0,29.78,South,180,9.2,9.2,29,0.00,,,0.00,meteobridge,2013-04-02 17:30:00,
2013-04-02 13:35:00,46.6,16.9,29.78,SE,135,7.6,8.3,30,0.00,,,0.00,meteobridge,2013-04-02 17:35:00,
2013-04-02 13:40:00,46.9,16.3,29.78,East,90,8.3,8.3,29,0.00,,,0.00,meteobridge,2013-04-02 17:40:00,
2013-04-02 13:45:00,46.2,13.3,29.78,East,90,5.4,7.6,26,0.00,,,0.00,meteobridge,2013-04-02 17:45:00,
2013-04-02 13:50:00,46.6,15.3,29.78,South,180,5.4,10.7,28,0.00,,,0.00,meteobridge,2013-04-02 17:50:00,
2013-04-02 13:55:00,47.7,16.2,29.78,SE,135,5.4,10.7,28,0.00,,,0.00,meteobridge,2013-04-02 17:55:00,
2013-04-02 14:01:00,47.1,15.6,29.78,South,180,9.8,9.8,28,0.00,,,0.00,meteobridge,2013-04-02 18:01:00,
2013-04-02 14:06:00,47.3,15.8,29.78,South,180,4.5,6.9,28,0.00,,,0.00,meteobridge,2013-04-02 18:06:00,
2013-04-02 14:11:00,48.2,15.8,29.77,South,180,6.0,13.6,27,0.00,,,0.00,meteobridge,2013-04-02 18:11:00,
2013-04-02 14:16:00,47.3,15.8,29.78,SE,135,4.5,7.6,28,0.00,,,0.00,meteobridge,2013-04-02 18:16:00,
2013-04-02 14:21:00,45.9,12.9,29.77,South,180,6.9,8.3,26,0.00,,,0.00,meteobridge,2013-04-02 18:21:00,
2013-04-02 14:26:00,45.0,14.5,29.77,South,180,7.6,9.2,29,0.00,,,0.00,meteobridge,2013-04-02 18:26:00,
2013-04-02 14:32:00,45.7,12.7,29.77,SE,135,10.7,10.7,26,0.00,,,0.00,meteobridge,2013-04-02 18:32:00,
2013-04-02 14:37:00,44.4,12.6,29.77,SW,225,5.4,6.9,27,0.00,,,0.00,meteobridge,2013-04-02 18:37:00,
2013-04-02 14:42:00,42.6,12.6,29.77,SE,135,7.6,7.6,29,0.00,,,0.00,meteobridge,2013-04-02 18:42:00,
2013-04-02 14:47:00,43.2,15.3,29.77,South,180,7.6,7.6,32,0.00,,,0.00,meteobridge,2013-04-02 18:47:00,
2013-04-02 14:52:00,44.2,15.4,29.77,NE,45,7.6,7.6,31,0.00,,,0.00,meteobridge,2013-04-02 18:52:00,
2013-04-02 14:57:00,43.7,14.4,29.77,South,180,6.9,6.9,30,0.00,,,0.00,meteobridge,2013-04-02 18:57:00,
2013-04-02 15:02:00,44.6,15.1,29.76,SE,135,3.1,6.0,30,0.00,,,0.00,meteobridge,2013-04-02 19:02:00,
2013-04-02 15:07:00,44.1,13.8,29.76,East,90,4.5,8.3,29,0.00,,,0.00,meteobridge,2013-04-02 19:07:00,
2013-04-02 15:13:00,44.8,13.6,29.76,SE,135,5.4,6.0,28,0.00,,,0.00,meteobridge,2013-04-02 19:13:00,
2013-04-02 15:18:00,45.3,13.3,29.76,ESE,113,5.4,6.0,27,0.00,,,0.00,meteobridge,2013-04-02 19:18:00,
2013-04-02 15:23:00,45.0,12.9,29.76,East,90,7.6,7.6,27,0.00,,,0.00,meteobridge,2013-04-02 19:23:00,
2013-04-02 15:28:00,43.5,12.6,29.76,SE,135,6.0,9.2,28,0.00,,,0.00,meteobridge,2013-04-02 19:28:00,
2013-04-02 15:33:00,42.4,14.7,29.76,North,0,6.0,6.0,32,0.00,,,0.00,meteobridge,2013-04-02 19:33:00,
2013-04-02 15:38:00,42.1,15.1,29.76,NE,45,4.5,5.4,33,0.00,,,0.00,meteobridge,2013-04-02 19:38:00,
2013-04-02 15:43:00,41.7,18.0,29.76,SE,135,3.8,5.4,38,0.00,,,0.00,meteobridge,2013-04-02 19:43:00,
2013-04-02 15:48:00,41.5,19.6,29.76,South,180,3.8,7.6,41,0.00,,,0.00,meteobridge,2013-04-02 19:48:00,
2013-04-02 15:54:00,41.5,20.7,29.76,South,180,9.2,9.2,43,0.00,,,0.00,meteobridge,2013-04-02 19:54:00,
2013-04-02 15:59:00,41.9,21.6,29.75,South,180,6.0,6.0,44,0.00,,,0.00,meteobridge,2013-04-02 19:59:00,
2013-04-02 16:04:00,42.3,21.9,29.75,NE,45,9.2,9.2,44,0.00,,,0.00,meteobridge,2013-04-02 20:04:00,
2013-04-02 16:09:00,42.4,21.6,29.75,SE,135,6.0,8.3,43,0.00,,,0.00,meteobridge,2013-04-02 20:09:00,
2013-04-02 16:14:00,43.5,21.9,29.75,SSW,203,5.4,5.4,42,0.00,,,0.00,meteobridge,2013-04-02 20:14:00,
2013-04-02 16:19:00,43.0,21.4,29.76,East,90,6.0,7.6,42,0.00,,,0.00,meteobridge,2013-04-02 20:19:00,
2013-04-02 16:25:00,42.6,22.3,29.76,East,90,4.5,4.5,44,0.00,,,0.00,meteobridge,2013-04-02 20:25:00,
2013-04-02 16:30:00,45.7,22.1,29.75,South,180,6.9,6.9,39,0.00,,,0.00,meteobridge,2013-04-02 20:30:00,
2013-04-02 16:35:00,46.9,21.4,29.75,South,180,5.4,5.4,36,0.00,,,0.00,meteobridge,2013-04-02 20:35:00,
2013-04-02 16:40:00,47.3,15.8,29.76,SE,135,6.9,10.7,28,0.00,,,0.00,meteobridge,2013-04-02 20:40:00,
2013-04-02 16:45:00,46.0,11.3,29.75,SE,135,8.3,8.3,24,0.00,,,0.00,meteobridge,2013-04-02 20:45:00,
2013-04-02 16:50:00,45.1,10.4,29.76,South,180,6.9,8.3,24,0.00,,,0.00,meteobridge,2013-04-02 20:50:00,
2013-04-02 16:55:00,45.1,12.2,29.76,SSE,158,7.6,7.6,26,0.00,,,0.00,meteobridge,2013-04-02 20:55:00,
2013-04-02 17:01:00,45.3,11.5,29.76,South,180,6.0,8.3,25,0.00,,,0.00,meteobridge,2013-04-02 21:01:00,
2013-04-02 17:06:00,44.4,11.7,29.76,SE,135,5.4,6.0,26,0.00,,,0.00,meteobridge,2013-04-02 21:06:00,
2013-04-02 17:11:00,44.2,11.5,29.76,NW,315,6.9,9.8,26,0.00,,,0.00,meteobridge,2013-04-02 21:11:00,
2013-04-02 17:16:00,43.3,10.8,29.77,South,180,6.9,8.3,26,0.00,,,0.00,meteobridge,2013-04-02 21:16:00,
2013-04-02 17:21:00,42.6,10.0,29.76,South,180,11.4,11.4,26,0.00,,,0.00,meteobridge,2013-04-02 21:21:00,
2013-04-02 17:26:00,42.3,12.2,29.77,South,180,6.0,6.0,29,0.00,,,0.00,meteobridge,2013-04-02 21:26:00,
2013-04-02 17:31:00,41.9,10.4,29.77,East,90,9.2,9.2,27,0.00,,,0.00,meteobridge,2013-04-02 21:31:00,
2013-04-02 17:36:00,41.9,12.0,29.77,South,180,7.6,11.4,29,0.00,,,0.00,meteobridge,2013-04-02 21:36:00,
2013-04-02 17:41:00,41.7,11.8,29.78,North,0,6.9,10.7,29,0.00,,,0.00,meteobridge,2013-04-02 21:41:00,
2013-04-02 17:47:00,41.7,11.8,29.78,NW,315,13.6,13.6,29,0.00,,,0.00,meteobridge,2013-04-02 21:47:00,
2013-04-02 17:52:00,41.5,12.4,29.78,SE,135,9.2,9.2,30,0.00,,,0.00,meteobridge,2013-04-02 21:52:00,
2013-04-02 17:57:00,41.4,11.5,29.78,SE,135,9.2,9.2,29,0.00,,,0.00,meteobridge,2013-04-02 21:57:00,
2013-04-02 18:02:00,41.2,10.6,29.78,SE,135,9.8,9.8,28,0.00,,,0.00,meteobridge,2013-04-02 22:02:00,
2013-04-02 18:07:00,41.0,11.8,29.78,SW,225,9.8,9.8,30,0.00,,,0.00,meteobridge,2013-04-02 22:07:00,
2013-04-02 18:12:00,40.8,11.8,29.78,SE,135,12.1,12.1,30,0.00,,,0.00,meteobridge,2013-04-02 22:12:00,
2013-04-02 18:18:00,40.3,10.6,29.79,South,180,9.2,10.7,29,0.00,,,0.00,meteobridge,2013-04-02 22:18:00,
2013-04-02 18:23:00,40.3,11.3,29.79,SE,135,7.6,7.6,30,0.00,,,0.00,meteobridge,2013-04-02 22:23:00,
2013-04-02 18:28:00,40.1,11.1,29.79,SE,135,9.2,9.2,30,0.00,,,0.00,meteobridge,2013-04-02 22:28:00,
2013-04-02 18:33:00,39.7,11.5,29.80,South,180,11.4,11.4,31,0.00,,,0.00,meteobridge,2013-04-02 22:33:00,
2013-04-02 18:38:00,39.6,11.5,29.80,SE,135,9.2,9.2,31,0.00,,,0.00,meteobridge,2013-04-02 22:38:00,
2013-04-02 18:43:00,39.4,12.0,29.80,SSE,158,13.0,13.0,32,0.00,,,0.00,meteobridge,2013-04-02 22:43:00,
2013-04-02 18:48:00,39.4,12.7,29.80,South,180,7.6,7.6,33,0.00,,,0.00,meteobridge,2013-04-02 22:48:00,
2013-04-02 18:54:00,39.2,11.8,29.81,SE,135,6.9,9.8,32,0.00,,,0.00,meteobridge,2013-04-02 22:54:00,
2013-04-02 18:59:00,39.2,14.5,29.81,South,180,13.6,13.6,36,0.00,,,0.00,meteobridge,2013-04-02 22:59:00,
2013-04-02 19:04:00,39.0,14.4,29.81,South,180,12.1,12.1,36,0.00,,,0.00,meteobridge,2013-04-02 23:04:00,
2013-04-02 19:09:00,38.8,11.5,29.81,SE,135,9.8,12.1,32,0.00,,,0.00,meteobridge,2013-04-02 23:09:00,
2013-04-02 19:14:00,38.7,10.6,29.81,SW,225,9.2,10.7,31,0.00,,,0.00,meteobridge,2013-04-02 23:14:00,
2013-04-02 19:19:00,38.5,12.6,29.82,SE,135,9.8,9.8,34,0.00,,,0.00,meteobridge,2013-04-02 23:19:00,
2013-04-02 19:24:00,38.5,10.4,29.82,SE,135,9.2,11.4,31,0.00,,,0.00,meteobridge,2013-04-02 23:24:00,
2013-04-02 19:30:00,38.5,11.8,29.82,South,180,13.0,14.5,33,0.00,,,0.00,meteobridge,2013-04-02 23:30:00,
2013-04-02 19:35:00,38.3,13.1,29.83,South,180,6.9,10.7,35,0.00,,,0.00,meteobridge,2013-04-02 23:35:00,
2013-04-02 19:40:00,38.1,13.5,29.83,SE,135,11.4,11.4,36,0.00,,,0.00,meteobridge,2013-04-02 23:40:00,
2013-04-02 19:45:00,37.9,12.0,29.83,East,90,10.7,10.7,34,0.00,,,0.00,meteobridge,2013-04-02 23:45:00,
2013-04-02 19:50:00,37.9,12.0,29.83,SE,135,6.0,9.2,34,0.00,,,0.00,meteobridge,2013-04-02 23:50:00,
2013-04-02 19:55:00,37.9,14.0,29.84,SE,135,10.7,10.7,37,0.00,,,0.00,meteobridge,2013-04-02 23:55:00,
2013-04-02 20:00:00,37.9,12.7,29.84,SSW,203,11.4,14.5,35,0.00,,,0.00,meteobridge,2013-04-03 00:00:00,
2013-04-02 20:05:00,37.9,12.7,29.84,SE,135,6.9,10.7,35,0.00,,,0.00,meteobridge,2013-04-03 00:05:00,
2013-04-02 20:11:00,38.1,12.9,29.84,SE,135,10.7,15.2,35,0.00,,,0.00,meteobridge,2013-04-03 00:11:00,
2013-04-02 20:16:00,37.9,10.8,29.85,East,90,14.5,18.3,32,0.00,,,0.00,meteobridge,2013-04-03 00:16:00,
2013-04-02 20:21:00,37.8,11.3,29.85,South,180,13.6,13.6,33,0.00,,,0.00,meteobridge,2013-04-03 00:21:00,
2013-04-02 20:26:00,37.8,13.8,29.85,ESE,113,9.8,10.7,37,0.00,,,0.00,meteobridge,2013-04-03 00:26:00,
2013-04-02 20:31:00,37.8,13.8,29.86,East,90,10.7,10.7,37,0.00,,,0.00,meteobridge,2013-04-03 00:31:00,
2013-04-02 20:36:00,37.4,12.2,29.86,SE,135,11.4,13.0,35,0.00,,,0.00,meteobridge,2013-04-03 00:36:00,
2013-04-02 20:42:00,37.4,12.2,29.86,SE,135,12.1,12.1,35,0.00,,,0.00,meteobridge,2013-04-03 00:42:00,
2013-04-02 20:47:00,37.4,12.9,29.86,SE,135,6.9,11.4,36,0.00,,,0.00,meteobridge,2013-04-03 00:47:00,
2013-04-02 20:52:00,37.2,12.0,29.86,South,180,13.0,13.0,35,0.00,,,0.00,meteobridge,2013-04-03 00:52:00,
2013-04-02 20:57:00,37.2,10.8,29.87,South,180,10.7,11.4,33,0.00,,,0.00,meteobridge,2013-04-03 00:57:00,
2013-04-02 21:02:00,37.2,12.0,29.87,SSE,158,9.2,10.7,35,0.00,,,0.00,meteobridge,2013-04-03 01:02:00,
2013-04-02 21:07:00,37.2,11.5,29.87,NNW,338,9.8,9.8,34,0.00,,,0.00,meteobridge,2013-04-03 01:07:00,
2013-04-02 21:13:00,37.2,12.7,29.87,SE,135,13.0,15.9,36,0.00,,,0.00,meteobridge,2013-04-03 01:13:00,
2013-04-02 21:18:00,37.0,11.3,29.86,South,180,9.8,9.8,34,0.00,,,0.00,meteobridge,2013-04-03 01:18:00,
2013-04-02 21:23:00,36.9,11.1,29.87,SE,135,11.4,14.5,34,0.00,,,0.00,meteobridge,2013-04-03 01:23:00,
2013-04-02 21:28:00,36.9,9.7,29.87,South,180,8.3,9.8,32,0.00,,,0.00,meteobridge,2013-04-03 01:28:00,
2013-04-02 21:33:00,36.9,10.4,29.88,South,180,9.2,9.2,33,0.00,,,0.00,meteobridge,2013-04-03 01:33:00,
2013-04-02 21:38:00,36.9,10.4,29.88,South,180,9.2,9.2,33,0.00,,,0.00,meteobridge,2013-04-03 01:38:00,
2013-04-02 21:44:00,36.9,12.4,29.88,South,180,12.1,12.1,36,0.00,,,0.00,meteobridge,2013-04-03 01:44:00,
2013-04-02 21:49:00,36.7,10.2,29.87,SE,135,9.8,9.8,33,0.00,,,0.00,meteobridge,2013-04-03 01:49:00,
2013-04-02 21:54:00,36.7,11.7,29.87,South,180,8.3,13.0,35,0.00,,,0.00,meteobridge,2013-04-03 01:54:00,
2013-04-02 21:59:00,36.7,10.9,29.87,South,180,11.4,11.4,34,0.00,,,0.00,meteobridge,2013-04-03 01:59:00,
2013-04-02 22:04:00,36.7,10.2,29.87,SE,135,13.0,13.0,33,0.00,,,0.00,meteobridge,2013-04-03 02:04:00,
2013-04-02 22:09:00,36.7,12.9,29.87,East,90,6.9,9.8,37,0.00,,,0.00,meteobridge,2013-04-03 02:09:00,
2013-04-02 22:15:00,36.7,11.7,29.87,SE,135,13.0,13.0,35,0.00,,,0.00,meteobridge,2013-04-03 02:15:00,
2013-04-02 22:20:00,36.5,12.0,29.87,SE,135,13.0,14.5,36,0.00,,,0.00,meteobridge,2013-04-03 02:20:00,
2013-04-02 22:25:00,36.5,12.0,29.88,South,180,13.0,13.0,36,0.00,,,0.00,meteobridge,2013-04-03 02:25:00,
2013-04-02 22:30:00,36.5,10.8,29.87,SE,135,12.1,12.1,34,0.00,,,0.00,meteobridge,2013-04-03 02:30:00,
2013-04-02 22:35:00,36.3,11.8,29.87,SE,135,15.2,15.2,36,0.00,,,0.00,meteobridge,2013-04-03 02:35:00,
2013-04-02 22:40:00,36.3,11.8,29.88,SE,135,7.6,14.5,36,0.00,,,0.00,meteobridge,2013-04-03 02:40:00,
2013-04-02 22:46:00,36.1,11.8,29.87,SE,135,12.1,12.1,36,0.00,,,0.00,meteobridge,2013-04-03 02:46:00,
2013-04-02 22:51:00,36.1,11.8,29.88,East,90,12.1,13.0,36,0.00,,,0.00,meteobridge,2013-04-03 02:51:00,
2013-04-02 22:56:00,36.1,12.9,29.88,SE,135,9.2,10.7,38,0.00,,,0.00,meteobridge,2013-04-03 02:56:00,
2013-04-02 23:01:00,36.0,14.5,29.88,South,180,11.4,13.6,41,0.00,,,0.00,meteobridge,2013-04-03 03:01:00,
2013-04-02 23:06:00,36.0,15.1,29.88,South,180,9.8,9.8,42,0.00,,,0.00,meteobridge,2013-04-03 03:06:00,
2013-04-02 23:12:00,36.0,12.7,29.87,SE,135,11.4,13.6,38,0.00,,,0.00,meteobridge,2013-04-03 03:12:00,
2013-04-02 23:17:00,36.0,14.5,29.87,SE,135,8.3,11.4,41,0.00,,,0.00,meteobridge,2013-04-03 03:17:00,
2013-04-02 23:22:00,35.8,14.4,29.88,SE,135,7.6,12.1,41,0.00,,,0.00,meteobridge,2013-04-03 03:22:00,
2013-04-02 23:27:00,35.8,14.4,29.88,East,90,6.0,10.7,41,0.00,,,0.00,meteobridge,2013-04-03 03:27:00,
2013-04-02 23:32:00,35.6,14.7,29.88,SE,135,8.3,9.2,42,0.00,,,0.00,meteobridge,2013-04-03 03:32:00,
2013-04-02 23:37:00,35.8,15.4,29.87,South,180,10.7,10.7,43,0.00,,,0.00,meteobridge,2013-04-03 03:37:00,
2013-04-02 23:43:00,35.6,14.2,29.88,South,180,11.4,13.0,41,0.00,,,0.00,meteobridge,2013-04-03 03:43:00,
2013-04-02 23:48:00,35.6,13.6,29.88,South,180,8.3,8.3,40,0.00,,,0.00,meteobridge,2013-04-03 03:48:00,
2013-04-02 23:53:00,35.4,14.5,29.87,South,180,8.3,10.7,42,0.00,,,0.00,meteobridge,2013-04-03 03:53:00,
2013-04-02 23:58:00,35.4,14.5,29.87,SW,225,8.3,12.1,42,0.00,,,0.00,meteobridge,2013-04-03 03:58:00,